Weather observations for the past three days for
Arnold Palmer Regional Airport
| Date | Time (edt) | Wind (kph) | Vis. (km) | Weather | Sky Cond. | Temperature (ºC) | Relative Humidity | Wind Chill (°C) | Heat Index (°C) | Pressure | Precipitation (cm) | ||||||
|---|---|---|---|---|---|---|---|---|---|---|---|---|---|---|---|---|---|
| Air | Dwpt | 6 hour | altimeter (cm) | sea level (mb) | 1 hr | 3 hr | 6 hr | ||||||||||
| Max. | Min. | ||||||||||||||||
| 04 | 00:35 | S 7 | 16.09 | Fair | CLR | 7 | 0 | 61% | 6 | 76.07 | 0.0 | ||||||
| 04 | 00:15 | S 7 | 16.09 | Fair | CLR | 7 | 0 | 61% | 6 | 76.07 | 0.0 | ||||||
| 03 | 23:55 | S 7 | 16.09 | Fair | CLR | 8 | 0 | 57% | 7 | 76.07 | 0.0 | ||||||
| 03 | 23:35 | S 6 | 16.09 | Fair | CLR | 7 | 1 | 66% | 76.1 | 0.0 | |||||||
| 03 | 23:15 | S 6 | 16.09 | Fair | CLR | 7 | 1 | 66% | 76.1 | 0.0 | |||||||
| 03 | 22:55 | S 6 | 16.09 | Fair | CLR | 7 | 0 | 61% | 76.1 | 0.0 | |||||||
| 03 | 22:35 | Calm | 16.09 | Fair | CLR | 8 | 2 | 66% | 76.1 | 0.0 | |||||||
| 03 | 22:15 | S 6 | 16.09 | Fair | CLR | 7 | 1 | 66% | 76.12 | 0.0 | |||||||
| 03 | 21:45 | SW 9 | 16.09 | Fair | CLR | 9 | 0 | 54% | 8 | 76.07 | 0.0 | ||||||
| 03 | 20:55 | SW 11 | 16.09 | Fair | CLR | 10 | 0 | 50% | 9 | 76.07 | 0.0 | ||||||
| 03 | 19:55 | SW 9 | 16.09 | Fair | CLR | 11 | 0 | 47% | 76.07 | 0.0 | |||||||
| 03 | 18:55 | SW 19 | 16.09 | Fair | CLR | 14 | 0 | 39% | 76.1 | 0.0 | |||||||
| 03 | 16:55 | SW 28 | 16.09 | Mostly Cloudy | SCT070 BKN080 BKN120 | 15 | -1 | 34% | 76.1 | 0.0 | |||||||
| 03 | 15:53 | W 24 G 37 | 16.09 | A Few Clouds | FEW070 | 14 | -1 | 36% | 76.15 | 0.0 | |||||||
| 03 | 14:53 | W 28 G 50 | 16.09 | A Few Clouds | FEW041 FEW055 | 14 | -1 | 36% | 76.2 | 0.0 | |||||||
| 03 | 13:53 | W 46 G 57 | 16.09 | Fair and Windy | CLR | 13 | -1 | 38% | 76.25 | 0.0 | |||||||
| 03 | 12:53 | SW 33 G 43 | 16.09 | A Few Clouds and Breezy | FEW060 | 12 | -1 | 41% | 76.3 | 0.0 | |||||||
| 03 | 11:47 | SW 24 G 44 | 16.09 | Fair | CLR | 11 | -1 | 44% | 76.35 | 0.0 | |||||||
| 03 | 10:47 | W 24 | 16.09 | Fair | CLR | 9 | -2 | 46% | 6 | 76.35 | 0.0 | ||||||
| 03 | 09:47 | W 15 | 16.09 | Fair | CLR | 8 | 1 | 62% | 6 | 76.38 | 0.0 | ||||||
| 03 | 08:47 | SW 24 | 16.09 | Fair | CLR | 5 | 2 | 81% | 1 | 76.38 | 0.0 | ||||||
| 03 | 07:50 | SW 11 | 16.09 | Fair | CLR | 3 | 1 | 87% | 0 | 76.35 | 0.0 | ||||||
| 03 | 06:47 | S 7 | 16.09 | Fair | CLR | 1 | 0 | 93% | -1 | 76.33 | 0.0 | ||||||
| 03 | 06:35 | S 6 | 16.09 | Fair | CLR | 1 | 0 | 93% | 76.3 | 0.0 | |||||||
| 03 | 06:15 | S 9 | 16.09 | Fair | CLR | 0 | 0 | 100% | -3 | 76.28 | 0.0 | ||||||
| 03 | 05:55 | SW 6 | 16.09 | Fair | CLR | 0 | -1 | 93% | 76.28 | 0.0 | |||||||
| 03 | 05:35 | S 6 | 16.09 | Fair | CLR | 1 | 0 | 93% | 76.28 | 0.0 | |||||||
| 03 | 05:15 | S 7 | 16.09 | Fair | CLR | 1 | 0 | 93% | -1 | 76.28 | 0.0 | ||||||
| 03 | 04:55 | S 7 | 16.09 | Fair | CLR | 1 | 0 | 93% | -1 | 76.28 | 0.0 | ||||||
| 03 | 04:35 | S 9 | 16.09 | Fair | CLR | 1 | 0 | 93% | -2 | 76.25 | 0.0 | ||||||
| 03 | 04:15 | S 9 | 16.09 | Partly Cloudy | SCT070 | 1 | 0 | 93% | -2 | 76.25 | 0.0 | ||||||
| 03 | 03:55 | S 9 | 16.09 | Overcast | OVC070 | 2 | 0 | 87% | -0 | 76.25 | 0.0 | ||||||
| 03 | 03:35 | S 9 | 16.09 | Overcast | OVC070 | 2 | 0 | 87% | -0 | 76.23 | 0.0 | ||||||
| 03 | 03:15 | SW 9 | 16.09 | Overcast | OVC070 | 2 | 0 | 87% | -0 | 76.23 | 0.0 | ||||||
| 03 | 02:55 | S 6 | 16.09 | Overcast | OVC070 | 2 | -1 | 81% | 76.23 | 0.0 | |||||||
| 03 | 02:35 | SW 6 | 16.09 | Partly Cloudy | SCT070 | 2 | -1 | 81% | 76.23 | 0.0 | |||||||
| 03 | 02:15 | SW 7 | 16.09 | Fair | CLR | 2 | -1 | 81% | 0 | 76.23 | 0.0 | ||||||
| 03 | 01:55 | W 7 | 16.09 | Fair | CLR | 2 | -1 | 81% | 0 | 76.23 | 0.0 | ||||||
| 03 | 01:35 | W 7 | 16.09 | Fair | CLR | 2 | 0 | 87% | 0 | 76.23 | 0.0 | ||||||
| 03 | 01:15 | W 6 | 16.09 | A Few Clouds | FEW080 | 3 | -1 | 75% | 76.25 | 0.0 | |||||||
| 03 | 00:55 | W 6 | 16.09 | Mostly Cloudy | BKN080 | 3 | 0 | 81% | 76.25 | 0.0 | |||||||
| 03 | 00:35 | W 7 | 16.09 | Overcast | OVC080 | 4 | 0 | 75% | 2 | 76.25 | 0.0 | ||||||
| 03 | 00:15 | W 7 | 16.09 | Overcast | OVC080 | 4 | 0 | 75% | 2 | 76.25 | 0.0 | ||||||
| 02 | 23:55 | W 6 | 16.09 | Overcast | OVC080 | 4 | 0 | 75% | 76.25 | 0.0 | |||||||
| 02 | 23:35 | W 6 | 16.09 | Overcast | OVC080 | 4 | 0 | 75% | 76.25 | 0.0 | |||||||
| 02 | 23:15 | W 6 | 16.09 | Overcast | OVC080 | 5 | 0 | 70% | 76.28 | 0.0 | |||||||
| 02 | 22:55 | Calm | 16.09 | Overcast | OVC080 | 5 | 0 | 70% | 76.28 | 0.0 | |||||||
| 02 | 22:35 | W 7 | 16.09 | Overcast | OVC080 | 5 | 0 | 70% | 4 | 76.28 | 0.0 | ||||||
| 02 | 22:15 | Calm | 16.09 | Overcast | OVC080 | 5 | 0 | 70% | 76.28 | 0.0 | |||||||
| 02 | 12:53 | SW 22 | 16.09 | Overcast | FEW037 SCT049 OVC060 | 8 | 1 | 62% | 5 | 76.17 | 0.0 | ||||||
| 02 | 11:47 | W 13 | 16.09 | Overcast | SCT025 BKN043 OVC050 | 7 | 2 | 71% | 5 | 76.2 | 0.0 | ||||||
| 02 | 10:47 | W 17 | 16.09 | Mostly Cloudy | SCT018 BKN024 BKN045 | 7 | 3 | 76% | 4 | 76.17 | 0.0 | ||||||
| 02 | 09:47 | W 7 | 16.09 | Overcast | SCT013 BKN036 OVC045 | 6 | 4 | 87% | 5 | 76.17 | 0.0 | ||||||
| 02 | 08:47 | SW 7 | 16.09 | Mostly Cloudy | SCT009 BKN025 BKN032 | 5 | 4 | 93% | 4 | 76.23 | 0.0 | ||||||
| 02 | 07:47 | Calm | 9.66 | Fog/Mist | SCT014 BKN041 OVC065 | 4 | 4 | 100% | 76.25 | 0.0 | |||||||
| 02 | 06:52 | Calm | 6.44 | Fog/Mist | SCT040 BKN055 | 2 | 2 | 100% | 76.23 | 0.0 | |||||||
| 02 | 06:35 | SW 6 | 6.44 | Fog/Mist | FEW041 | 2 | 2 | 100% | 76.25 | 0.0 | |||||||
| 02 | 06:15 | SW 6 | 6.44 | Fog/Mist | FEW060 | 2 | 2 | 100% | 76.23 | 0.0 | |||||||
| 02 | 05:55 | S 6 | 9.66 | Fog/Mist | BKN060 | 3 | 3 | 100% | 76.25 | 0.0 | |||||||
| 02 | 05:35 | S 7 | 9.66 | Fog/Mist | BKN065 | 2 | 2 | 100% | 0 | 76.23 | 0.0 | ||||||
| 02 | 05:15 | SW 9 | 8.05 | Fog/Mist | CLR | 2 | 2 | 100% | -0 | 76.23 | 0.0 | ||||||
| 02 | 04:55 | SW 11 | 9.66 | Fog/Mist | SCT009 | 3 | 3 | 100% | 0 | 76.23 | 0.0 | ||||||
| 02 | 04:35 | SW 6 | 8.05 | Fog/Mist | BKN008 BKN016 | 3 | 2 | 93% | 76.23 | 0.0 | |||||||
| 02 | 04:15 | Calm | 11.27 | Mostly Cloudy | SCT006 SCT009 BKN016 | 3 | 3 | 100% | 76.2 | 0.0 | |||||||
| 02 | 03:55 | Calm | 14.48 | Overcast | BKN005 BKN019 OVC026 | 3 | 3 | 100% | 76.2 | 0.0 | |||||||
| 02 | 03:35 | S 7 | 16.09 | Overcast | FEW005 SCT010 OVC019 | 4 | 3 | 93% | 2 | 76.2 | 0.0 | ||||||
| 02 | 03:15 | S 7 | 16.09 | Overcast | SCT005 BKN009 OVC017 | 4 | 4 | 100% | 2 | 76.2 | 0.0 | ||||||
| 02 | 02:55 | S 9 | 16.09 | Overcast | BKN009 OVC018 | 4 | 4 | 100% | 2 | 76.23 | 0.0 | ||||||
| 02 | 02:35 | S 9 | 16.09 | Overcast | OVC008 | 4 | 4 | 100% | 2 | 76.2 | 0.0 | ||||||
| 02 | 02:15 | S 7 | 16.09 | Mostly Cloudy | BKN007 | 4 | 3 | 93% | 2 | 76.23 | 0.0 | ||||||
| 02 | 01:55 | Calm | 16.09 | Partly Cloudy | SCT007 | 3 | 3 | 100% | 76.23 | 0.0 | |||||||
| 02 | 01:35 | SE 6 | 16.09 | A Few Clouds | FEW008 | 3 | 3 | 100% | 76.23 | 0.0 | |||||||
| 02 | 01:15 | Calm | 16.09 | Fair | CLR | 3 | 3 | 100% | 76.23 | 0.0 | |||||||
| 02 | 00:55 | SW 9 | 16.09 | Fair | CLR | 3 | 3 | 100% | 1 | 76.23 | 0.0 | ||||||
| 02 | 00:35 | Calm | 16.09 | Fair | CLR | 4 | 3 | 93% | 76.23 | 0.0 | |||||||
| 02 | 00:15 | W 6 | 16.09 | A Few Clouds | FEW040 | 4 | 3 | 93% | 76.23 | 0.0 | |||||||
| 01 | 23:55 | W 7 | 16.09 | Mostly Cloudy | BKN038 | 5 | 3 | 87% | 4 | 76.2 | 0.0 | ||||||
| 01 | 23:35 | W 11 | 16.09 | Overcast | SCT018 SCT023 OVC036 | 5 | 4 | 93% | 3 | 76.2 | 0.0 | ||||||
| 01 | 23:15 | W 11 | 16.09 | Overcast | BKN018 OVC022 | 6 | 4 | 87% | 4 | 76.17 | 0.0 | ||||||
| 01 | 22:55 | W 13 | 16.09 | Overcast | OVC018 | 6 | 4 | 87% | 4 | 76.17 | 0.0 | ||||||
| 01 | 22:35 | W 17 | 16.09 | Overcast | FEW012 BKN018 OVC026 | 6 | 5 | 93% | 3 | 76.15 | 0.0 | ||||||
| 01 | 22:15 | W 15 | 16.09 | Overcast | SCT012 BKN018 OVC026 | 6 | 5 | 93% | 3 | 76.12 | 0.0 | ||||||
| 01 | 20:53 | SW 13 | 16.09 | Overcast | BKN018 OVC031 OVC065 | 7 | 6 | 93% | 5 | 76.07 | 0.0 | ||||||
| 01 | 18:47 | S 9 | 16.09 | Light Rain | SCT044 BKN045 OVC055 | 9 | 7 | 87% | 8 | 75.92 | 0.0 | ||||||
| 01 | 17:47 | W 9 | 11.27 | Light Rain | BKN038 OVC046 | 9 | 7 | 87% | 8 | 75.95 | 0.0 | ||||||
| 01 | 16:53 | N 22 | 16.09 | Mostly Cloudy | SCT022 BKN031 BKN034 | 11 | 7 | 77% | 75.9 | 0.0 | |||||||
| 01 | 15:47 | W 19 | 16.09 | Overcast | SCT040 OVC050 | 11 | 5 | 67% | 75.9 | 0.0 | |||||||
| 01 | 14:47 | SW 19 | 16.09 | Overcast | SCT040 OVC070 | 14 | 2 | 44% | 75.84 | 0.0 | |||||||
| 01 | 13:47 | SW 19 G 33 | 24.14 | Mostly Cloudy | FEW040 BKN090 | 14 | 3 | 48% | 75.84 | 0.0 | |||||||
| 01 | 12:47 | SW 19 G 37 | 16.09 | Overcast | FEW040 OVC090 | 14 | 2 | 44% | 75.9 | 0.0 | |||||||
| 01 | 11:47 | S 19 G 35 | 16.09 | Partly Cloudy | FEW044 SCT060 | 14 | 3 | 48% | 75.97 | 0.0 | |||||||
| 01 | 10:47 | SW 22 G 37 | 16.09 | A Few Clouds | FEW100 | 12 | 4 | 58% | 76.02 | 0.0 | |||||||
| 01 | 09:47 | SW 20 G 33 | 16.09 | Fair | CLR | 11 | 5 | 67% | 76.02 | 0.0 | |||||||
| 01 | 08:47 | S 17 | 16.09 | Fair | CLR | 8 | 5 | 82% | 6 | 76.1 | 0.0 | ||||||
| 01 | 07:47 | Calm | 16.09 | Fair | CLR | 3 | 3 | 100% | 76.1 | 0.0 | |||||||
| 01 | 06:47 | Calm | 16.09 | Fair | CLR | 1 | 1 | 100% | 76.1 | 0.0 | |||||||
| 01 | 06:35 | Calm | 12.87 | Fair | CLR | 1 | 1 | 100% | 76.1 | 0.0 | |||||||
| 01 | 06:15 | Calm | 14.48 | Fair | CLR | 1 | 1 | 100% | 76.1 | 0.0 | |||||||
| 01 | 05:55 | Calm | 12.87 | Fair | CLR | 1 | 1 | 100% | 76.1 | 0.0 | |||||||
| 01 | 05:35 | Calm | 14.48 | Fair | CLR | 1 | 1 | 100% | 76.12 | 0.0 | |||||||
| 01 | 05:15 | Calm | 14.48 | Fair | CLR | 1 | 1 | 100% | 76.12 | 0.0 | |||||||
| 01 | 04:55 | Calm | 16.09 | Fair | CLR | 2 | 2 | 100% | 76.1 | 0.0 | |||||||
| 01 | 04:35 | S 6 | 16.09 | Fair | CLR | 2 | 2 | 100% | 76.1 | 0.0 | |||||||
| 01 | 03:55 | Calm | 16.09 | Fair | CLR | 2 | 2 | 100% | 76.12 | 0.0 | |||||||
| 01 | 03:35 | Calm | 16.09 | Fair | CLR | 2 | 2 | 100% | 76.1 | 0.0 | |||||||
| 01 | 03:15 | Calm | 16.09 | Fair | CLR | 2 | 2 | 100% | 76.1 | 0.0 | |||||||
| 01 | 02:55 | Calm | 16.09 | Fair | CLR | 3 | 3 | 100% | 76.12 | 0.0 | |||||||
| 01 | 02:35 | S 7 | 16.09 | Fair | CLR | 3 | 3 | 100% | 1 | 76.15 | 0.0 | ||||||
| 01 | 02:15 | Calm | 16.09 | Fair | CLR | 3 | 2 | 93% | 76.15 | 0.0 | |||||||
| 01 | 01:55 | Calm | 16.09 | Fair | CLR | 3 | 2 | 93% | 76.15 | 0.0 | |||||||
| 01 | 01:35 | SW 6 | 16.09 | Fair | CLR | 3 | 3 | 100% | 76.17 | 0.0 | |||||||
| 01 | 01:15 | SW 6 | 16.09 | Fair | CLR | 3 | 3 | 100% | 76.17 | 0.0 | |||||||
| 01 | 00:55 | S 6 | 16.09 | Fair | CLR | 4 | 3 | 93% | 76.15 | 0.0 | |||||||
| Date | Time (edt) | Wind (kph) | Vis. (km) | Weather | Sky Cond. | Air | Dwpt | Max. | Min. | Relative Humidity | Wind Chill (°C) | Heat Index (°C) | altimeter (cm) | sea level (mb) | 1 hr | 3 hr | 6 hr |
| 6 hour | |||||||||||||||||
| Temperature (ºC) | Pressure | Precipitation (cm) | |||||||||||||||